This demonstration page uses our WeatherBlox Daily Observations layout. Learn more.

36.17497, -115.13722

Hourly Observations for July 31, 2015

Temp ( °F °C ) Dew Point ( °F °C ) Humidity (%) Winds ( mph kmh ) Pressure ( in mb ) Visibility ( mi km ) Precip ( " mm )
12:53 am 00:53 Clear 92 33.3 52 11.1 26 26 NNW 6 9 29.93 1014 10 16.0934 0 0
1:53 am 01:53 Clear 90 32.2 51 10.6 26 26 SSE 8 13 29.93 1014 10 16.0934 0 0
2:53 am 02:53 Clear 90 32.2 53 11.7 28 28 S 6 9 29.94 1014 10 16.0934 0 0
3:53 am 03:53 Clear 89 31.7 53 11.7 29 29 Calm 29.95 1014 10 16.0934 0 0
4:53 am 04:53 Clear 89 31.7 53 11.7 29 29 Calm 29.95 1014 10 16.0934 0 0
5:53 am 05:53 Sunny 88 31.1 54 12.2 31 31 Calm 29.97 1015 10 16.0934 0 0
6:53 am 06:53 Sunny 88 31.1 54 12.2 31 31 Calm 29.99 1016 10 16.0934 0 0
7:53 am 07:53 Sunny 92 33.3 53 11.7 27 27 NE 3 6 30 1016 10 16.0934 0 0
8:53 am 08:53 Sunny 92 33.3 53 11.7 27 27 SE 5 7 30 1016 10 16.0934 0 0
9:53 am 09:53 Sunny 95 35 53 11.7 24 24 SE 3 6 29.99 1016 10 16.0934 0 0
10:53 am 10:53 Sunny 97 36.1 53 11.7 23 23 VRB 3 6 29.99 1016 10 16.0934 0 0
11:53 am 11:53 Sunny 98 36.7 54 12.2 23 23 VRB 7 11 29.98 1015 10 16.0934 0 0
12:53 pm 12:53 Sunny 99 37.2 54 12.2 22 22 SE 7 11 29.96 1015 10 16.0934 0 0
1:53 pm 13:53 Sunny 100 37.8 54 12.2 21 21 SW 8 13 29.93 1014 10 16.0934 0 0
2:53 pm 14:53 Sunny 101 38.3 53 11.7 20 20 undefined N/A 29.9 1013 10 16.0934 0 0
3:41 pm 15:41 Partly Cloudy 103 39.4 53 11.7 19 19 N 23 37 29.74 1007 10 16.0934 0 0
3:53 pm 15:53 Mostly Sunny 102 38.9 53 11.7 19 19 N 18 30 29.88 1012 10 16.0934 0 0
4:53 pm 16:53 Sunny 102 38.9 53 11.7 19 19 NNW 16 26 29.85 1011 10 16.0934 0 0
5:53 pm 17:53 Sunny 102 38.9 53 11.7 19 19 N 10 17 29.85 1011 10 16.0934 0 0
6:53 pm 18:53 Partly Cloudy 100 37.8 52 11.1 20 20 WSW 5 7 29.85 1011 10 16.0934 0 0
7:53 pm 19:53 Clear 97 36.1 53 11.7 23 23 SSW 13 20 29.88 1012 10 16.0934 0 0
8:53 pm 20:53 Clear 96 35.6 54 12.2 24 24 WSW 7 11 29.89 1012 10 16.0934 0 0
9:53 pm 21:53 Clear 95 35 54 12.2 25 25 SE 9 15 29.91 1013 10 16.0934 0 0
10:53 pm 22:53 Clear 93 33.9 54 12.2 27 27 SE 5 7 29.91 1013 10 16.0934 0 0
11:53 pm 23:53 Clear 94 34.4 54 12.2 26 26 NW 5 7 29.9 1012 10 16.0934 0 0

Powered by AerisWeather